| time (UTC) | temp F | wind direction | speed MPH | gust MPH | rain 1hr in | rain 24hr in | rain mn in | humidity % | barometer mb |
| 20260506201530 | 50 | 0 | 0.0 | 2.0 | 0.00 | 0.00 | 0.00 | 70 | 1014.6 |
| 20260506200034 | 50 | 78 | 0.0 | 2.0 | 0.00 | 0.00 | 0.00 | 69 | 1014.4 |
| 20260506194532 | 51 | 0 | 0.0 | 2.0 | 0.00 | 0.00 | 0.00 | 68 | 1014.4 |
| 20260506193036 | 51 | 0 | 0.0 | 3.0 | 0.00 | 0.00 | 0.00 | 67 | 1014.1 |
| 20260506191530 | 51 | 52 | 0.0 | 5.0 | 0.00 | 0.00 | 0.00 | 67 | 1014.1 |
| 20260506190033 | 52 | 324 | 0.0 | 4.0 | 0.00 | 0.00 | 0.00 | 67 | 1014.1 |
| 20260506184537 | 52 | 322 | 0.0 | 3.0 | 0.00 | 0.00 | 0.00 | 68 | 1014.0 |
| 20260506183030 | 52 | 318 | 1.0 | 4.0 | 0.00 | 0.00 | 0.00 | 67 | 1013.9 |
| 20260506181539 | 53 | 23 | 1.0 | 4.0 | 0.00 | 0.00 | 0.00 | 66 | 1013.8 |
| 20260506180030 | 53 | 326 | 1.0 | 5.0 | 0.00 | 0.00 | 0.00 | 64 | 1013.5 |
| 20260506174535 | 54 | 25 | 1.0 | 6.0 | 0.00 | 0.00 | 0.00 | 63 | 1013.3 |
| 20260506173032 | 53 | 300 | 0.0 | 3.0 | 0.00 | 0.00 | 0.00 | 64 | 1013.3 |
| 20260506171535 | 53 | 309 | 0.0 | 5.0 | 0.00 | 0.00 | 0.00 | 65 | 1013.3 |
| 20260506170037 | 53 | 345 | 1.0 | 5.0 | 0.00 | 0.00 | 0.00 | 64 | 1013.3 |
| 20260506164546 | 54 | 32 | 3.0 | 7.0 | 0.00 | 0.00 | 0.00 | 62 | 1013.1 |
| 20260506163035 | 54 | 50 | 3.0 | 7.0 | 0.00 | 0.00 | 0.00 | 63 | 1013.0 |
| 20260506161530 | 55 | 65 | 3.0 | 7.0 | 0.00 | 0.00 | 0.00 | 61 | 1012.9 |
| 20260506160034 | 54 | 66 | 1.0 | 5.0 | 0.00 | 0.00 | 0.00 | 62 | 1013.0 |
| 20260506154533 | 54 | 347 | 2.0 | 6.0 | 0.00 | 0.00 | 0.00 | 62 | 1013.0 |
| 20260506153032 | 55 | 302 | 2.0 | 8.0 | 0.00 | 0.00 | 0.00 | 60 | 1013.0 |
| 20260506151533 | 55 | 282 | 3.0 | 9.0 | 0.00 | 0.00 | 0.00 | 57 | 1013.1 |
| 20260506150030 | 55 | 38 | 4.0 | 11.0 | 0.00 | 0.00 | 0.00 | 58 | 1013.1 |
| 20260506144530 | 57 | 58 | 3.0 | 11.0 | 0.00 | 0.00 | 0.00 | 58 | 1013.2 |
| 20260506143037 | 55 | 316 | 2.0 | 8.0 | 0.00 | 0.00 | 0.00 | 58 | 1013.3 |
| 20260506141540 | 56 | 62 | 2.0 | 12.0 | 0.00 | 0.00 | 0.00 | 56 | 1013.1 |
| 20260506140034 | 55 | 302 | 4.0 | 8.0 | 0.00 | 0.00 | 0.00 | 57 | 1013.2 |
| 20260506134530 | 55 | 319 | 3.0 | 12.0 | 0.00 | 0.00 | 0.00 | 57 | 1013.4 |
| 20260506133030 | 57 | 51 | 5.0 | 13.0 | 0.00 | 0.00 | 0.00 | 54 | 1013.2 |
| 20260506131529 | 55 | 42 | 3.0 | 10.0 | 0.00 | 0.00 | 0.00 | 56 | 1013.2 |
| 20260506130030 | 56 | 356 | 2.0 | 9.0 | 0.00 | 0.00 | 0.00 | 58 | 1013.4 |
| 20260506124529 | 55 | 70 | 4.0 | 9.0 | 0.00 | 0.00 | 0.00 | 57 | 1013.5 |
| 20260506123030 | 56 | 349 | 2.0 | 10.0 | 0.00 | 0.00 | 0.00 | 58 | 1013.5 |
| 20260506121530 | 55 | 15 | 3.0 | 9.0 | 0.00 | 0.00 | 0.00 | 57 | 1013.4 |
| 20260506120049 | 55 | 39 | 4.0 | 11.0 | 0.00 | 0.00 | 0.00 | 63 | 1013.5 |
| 20260506114534 | 54 | 302 | 3.0 | 11.0 | 0.00 | 0.00 | 0.00 | 63 | 1013.4 |
| 20260506113030 | 54 | 23 | 4.0 | 11.0 | 0.00 | 0.00 | 0.00 | 62 | 1013.5 |
| 20260506111531 | 54 | 344 | 4.0 | 9.0 | 0.00 | 0.00 | 0.00 | 61 | 1013.7 |
| 20260506110032 | 53 | 30 | 5.0 | 13.0 | 0.00 | 0.00 | 0.00 | 60 | 1013.7 |
| 20260506104539 | 53 | 294 | 4.0 | 13.0 | 0.00 | 0.00 | 0.00 | 60 | 1013.7 |
| 20260506103040 | 53 | 8 | 4.0 | 12.0 | 0.00 | 0.00 | 0.00 | 61 | 1013.6 |
| 20260506101532 | 52 | 304 | 3.0 | 8.0 | 0.00 | 0.00 | 0.00 | 65 | 1013.6 |
| 20260506100031 | 51 | 0 | 3.0 | 11.0 | 0.00 | 0.00 | 0.00 | 65 | 1013.6 |
| 20260506094530 | 51 | 33 | 5.0 | 10.0 | 0.00 | 0.00 | 0.00 | 65 | 1013.6 |
| 20260506093031 | 51 | 37 | 4.0 | 12.0 | 0.00 | 0.00 | 0.00 | 67 | 1013.5 |
| 20260506091530 | 50 | 322 | 3.0 | 10.0 | 0.00 | 0.00 | 0.00 | 70 | 1013.6 |
| 20260506090031 | 50 | 317 | 4.0 | 11.0 | 0.00 | 0.00 | 0.00 | 69 | 1013.6 |
| 20260506084606 | 49 | 4 | 2.0 | 9.0 | 0.00 | 0.00 | 0.00 | 73 | 1013.7 |
| 20260506083029 | 49 | 347 | 3.0 | 10.0 | 0.00 | 0.00 | 0.00 | 73 | 1013.7 |
| 20260506081540 | 48 | 359 | 4.0 | 10.0 | 0.00 | 0.00 | 0.00 | 75 | 1013.7 |
| 20260506073030 | 47 | 59 | 4.0 | 10.0 | 0.00 | 0.00 | 0.00 | 77 | 1013.6 |
| 20260506071534 | 48 | 30 | 3.0 | 9.0 | 0.00 | 0.00 | 0.00 | 77 | 1013.5 |
| 20260506061530 | 45 | 115 | 3.0 | 7.0 | 0.00 | 0.00 | 0.00 | 83 | 1013.3 |
| 20260506044536 | 45 | 48 | 1.0 | 7.0 | 0.00 | 0.00 | 0.00 | 85 | 1012.9 |
| 20260506043030 | 45 | 41 | 1.0 | 7.0 | 0.00 | 0.00 | 0.00 | 85 | 1012.8 |
| 20260506041530 | 46 | 47 | 1.0 | 6.0 | 0.00 | 0.00 | 0.00 | 85 | 1012.7 |
| 20260506040036 | 46 | 19 | 1.0 | 6.0 | 0.00 | 0.00 | 0.00 | 85 | 1012.7 |
| 20260506034533 | 47 | 0 | 2.0 | 6.0 | 0.00 | 0.00 | 0.00 | 85 | 1012.7 |
| 20260506033030 | 47 | 41 | 2.0 | 7.0 | 0.00 | 0.00 | 0.00 | 86 | 1012.7 |
| 20260506031539 | 47 | 321 | 1.0 | 4.0 | 0.00 | 0.00 | 0.00 | 86 | 1012.7 |
| 20260506030031 | 47 | 22 | 1.0 | 3.0 | 0.00 | 0.00 | 0.00 | 86 | 1012.7 |
| 20260506024533 | 47 | 36 | 1.0 | 4.0 | 0.00 | 0.00 | 0.00 | 85 | 1012.8 |
| 20260506023050 | 47 | 25 | 0.0 | 5.0 | 0.00 | 0.00 | 0.00 | 84 | 1012.7 |
| 20260506021552 | 47 | 0 | 1.0 | 7.0 | 0.00 | 0.00 | 0.00 | 83 | 1012.7 |
| 20260506020032 | 48 | 58 | 0.0 | 4.0 | 0.00 | 0.00 | 0.00 | 82 | 1012.9 |
| 20260506014532 | 48 | 34 | 0.0 | 6.0 | 0.00 | 0.00 | 0.00 | 81 | 1012.9 |
| 20260506013035 | 48 | 72 | 1.0 | 8.0 | 0.00 | 0.00 | 0.00 | 80 | 1012.9 |
| 20260506011531 | 49 | 67 | 1.0 | 9.0 | 0.00 | 0.00 | 0.00 | 80 | 1013.0 |
| 20260506010032 | 49 | 36 | 3.0 | 8.0 | 0.00 | 0.00 | 0.00 | 80 | 1013.1 |
| 20260506004534 | 49 | 81 | 3.0 | 9.0 | 0.00 | 0.00 | 0.00 | 81 | 1012.9 |
| 20260506003032 | 49 | 300 | 2.0 | 7.0 | 0.00 | 0.00 | 0.00 | 82 | 1013.0 |
| 20260506001532 | 50 | 312 | 2.0 | 6.0 | 0.00 | 0.00 | 0.00 | 82 | 1013.0 |
| 20260506000030 | 50 | 96 | 1.0 | 7.0 | 0.00 | 0.00 | 0.00 | 82 | 1013.0 |
| 20260505234532 | 50 | 345 | 1.0 | 5.0 | 0.00 | 0.00 | 0.00 | 82 | 1013.0 |
| 20260505233035 | 51 | 0 | 0.0 | 5.0 | 0.00 | 0.00 | 0.00 | 82 | 1013.1 |
| 20260505231546 | 51 | 0 | 2.0 | 7.0 | 0.00 | 0.00 | 0.00 | 80 | 1012.9 |
| 20260505230030 | 52 | 65 | 0.0 | 7.0 | 0.00 | 0.00 | 0.00 | 78 | 1012.9 |
| 20260505224532 | 52 | 34 | 2.0 | 6.0 | 0.00 | 0.00 | 0.00 | 77 | 1012.9 |
| 20260505223031 | 52 | 14 | 1.0 | 6.0 | 0.00 | 0.00 | 0.00 | 77 | 1012.7 |
| 20260505221534 | 52 | 49 | 1.0 | 8.0 | 0.00 | 0.00 | 0.00 | 76 | 1012.7 |
| 20260505220033 | 52 | 50 | 3.0 | 7.0 | 0.00 | 0.00 | 0.00 | 76 | 1012.7 |
| 20260505214548 | 53 | 37 | 2.0 | 9.0 | 0.00 | 0.00 | 0.00 | 76 | 1012.8 |
| 20260505213038 | 53 | 33 | 1.0 | 8.0 | 0.00 | 0.00 | 0.00 | 76 | 1012.7 |
| 20260505211530 | 53 | 38 | 2.0 | 11.0 | 0.00 | 0.00 | 0.00 | 76 | 1012.5 |
| 20260505210031 | 53 | 45 | 0.0 | 5.0 | 0.00 | 0.00 | 0.00 | 76 | 1012.5 |
| 20260505204531 | 54 | 306 | 0.0 | 5.0 | 0.00 | 0.00 | 0.00 | 75 | 1012.4 |
| 20260505203050 | 54 | 0 | 1.0 | 6.0 | 0.00 | 0.00 | 0.00 | 75 | 1012.4 |